Location: Mentone
(34.5413°N, 85.5351°W)
Time: 20:52:35
(UTC-05:00)

Transit 2A Rocket - Visible Passes

Search period start: 30 June 2015 00:00
Search period end: 10 July 2015 00:00
Orbit: 588 x 917 km, 66.7° (Epoch: 30 June)

Date Brightness Start Highest point End Pass type
(mag) Time Alt. Az. Time Alt. Az. Time Alt. Az.
30 Jun 7.4 03:32:38 10° SSE 03:36:40 19° ESE 03:40:52 10° ENE visible
01 Jul 5.4 04:30:50 10° SSW 04:36:52 84° ESE 04:42:46 10° NNE visible
02 Jul 6.0 03:50:19 17° S 03:54:48 49° ESE 04:00:28 10° NE visible
03 Jul 6.8 03:09:45 19° SSE 03:12:47 29° ESE 03:17:49 10° NE visible
03 Jul 6.0 04:49:42 10° SW 04:55:21 40° WNW 05:00:48 10° NNE visible
04 Jul 7.3 02:29:07 14° SE 02:30:49 16° ESE 02:34:29 10° ENE visible
04 Jul 5.4 04:09:04 22° SW 04:13:07 68° WNW 04:18:56 10° NNE visible
05 Jul 5.4 03:28:22 35° S 03:30:59 73° ESE 03:36:49 10° NNE visible
06 Jul 6.1 02:47:38 37° SE 02:48:56 42° ESE 02:54:26 10° NE visible
06 Jul 6.5 04:27:34 14° WSW 04:31:44 29° NW 04:36:39 10° N visible
07 Jul 6.8 02:06:50 24° ESE 02:06:55 24° ESE 02:11:39 10° NE visible
07 Jul 5.8 03:46:46 29° WSW 03:49:24 47° WNW 03:54:58 10° NNE visible
08 Jul 7.5 01:25:59 13° E 01:25:59 13° E 01:27:53 10° ENE visible
08 Jul 5.2 03:05:56 57° SW 03:07:12 79° WNW 03:13:02 10° NNE visible
08 Jul 7.4 04:48:11 10° WNW 04:50:47 12° NW 04:53:01 10° NNW visible
09 Jul 5.4 02:25:02 62° ESE 02:25:05 62° ESE 02:30:51 10° NE visible
09 Jul 6.9 04:04:58 14° W 04:08:12 20° NW 04:12:18 10° N visible
